TimeEDT,TemperatureF,Dew PointF,Humidity,Sea Level PressureIn,VisibilityMPH,Wind Direction,Wind SpeedMPH,Gust SpeedMPH,PrecipitationIn,Events,Conditions,WindDirDegrees,DateUTC
12:53 AM,69.1,64.9,87,29.98,10.0,Calm,Calm,-,N/A,,Clear,0,2013-09-08 04:53:00
1:53 AM,70.0,66.9,90,29.98,10.0,Calm,Calm,-,N/A,,Scattered Clouds,0,2013-09-08 05:53:00
2:53 AM,70.0,66.9,90,29.97,9.0,Calm,Calm,-,N/A,,Mostly Cloudy,0,2013-09-08 06:53:00
3:53 AM,70.0,66.9,90,29.96,9.0,WSW,5.8,-,0.00,,Overcast,240,2013-09-08 07:53:00
4:53 AM,69.1,68.0,96,29.96,5.0,Calm,Calm,-,N/A,,Clear,0,2013-09-08 08:53:00
5:53 AM,68.0,66.9,96,29.96,3.0,Calm,Calm,-,N/A,,Scattered Clouds,0,2013-09-08 09:53:00
6:27 AM,66.2,66.2,100,29.99,2.5,Calm,Calm,-,N/A,,Clear,0,2013-09-08 10:27:00
6:35 AM,68.0,66.2,94,29.99,4.0,Calm,Calm,-,N/A,,Scattered Clouds,0,2013-09-08 10:35:00
6:53 AM,66.9,66.0,97,29.97,2.5,Calm,Calm,-,N/A,,Mostly Cloudy,0,2013-09-08 10:53:00
7:21 AM,66.2,66.2,100,30.00,1.2,Calm,Calm,-,0.01,,Partly Cloudy,0,2013-09-08 11:21:00
7:35 AM,66.2,66.2,100,30.00,2.0,Calm,Calm,-,0.01,,Clear,0,2013-09-08 11:35:00
7:53 AM,66.9,66.0,97,29.98,2.0,Calm,Calm,-,0.01,,Clear,0,2013-09-08 11:53:00
8:10 AM,66.2,66.2,100,30.00,3.0,Calm,Calm,-,N/A,,Clear,0,2013-09-08 12:10:00
8:53 AM,71.1,69.1,93,30.00,5.0,Calm,Calm,-,N/A,,Clear,0,2013-09-08 12:53:00
9:53 AM,77.0,70.0,79,29.99,9.0,Calm,Calm,-,N/A,,Scattered Clouds,0,2013-09-08 13:53:00
10:53 AM,81.0,68.0,65,29.99,10.0,Calm,Calm,-,N/A,,Partly Cloudy,0,2013-09-08 14:53:00
11:53 AM,81.0,66.0,60,30.00,10.0,West,4.6,-,N/A,,Mostly Cloudy,270,2013-09-08 15:53:00
12:53 PM,84.9,66.0,53,29.99,10.0,Variable,3.5,-,N/A,,Scattered Clouds,0,2013-09-08 16:53:00
1:53 PM,84.9,66.0,53,29.98,10.0,Variable,4.6,-,N/A,,Mostly Cloudy,0,2013-09-08 17:53:00
2:53 PM,86.0,63.0,46,29.96,10.0,Variable,3.5,-,N/A,,Scattered Clouds,0,2013-09-08 18:53:00
3:53 PM,89.1,62.1,40,29.95,10.0,North,5.8,-,N/A,,Clear,360,2013-09-08 19:53:00
4:53 PM,87.1,64.0,46,29.94,10.0,Calm,Calm,-,N/A,,Partly Cloudy,0,2013-09-08 20:53:00
5:53 PM,88.0,63.0,43,29.93,10.0,North,4.6,-,N/A,,Clear,350,2013-09-08 21:53:00
6:53 PM,82.0,66.0,58,29.94,10.0,Calm,Calm,-,N/A,,Clear,0,2013-09-08 22:53:00
7:53 PM,77.0,68.0,74,29.94,10.0,Calm,Calm,-,N/A,,Clear,0,2013-09-08 23:53:00
8:53 PM,75.0,68.0,79,29.95,10.0,Calm,Calm,-,N/A,,Clear,0,2013-09-09 00:53:00
9:53 PM,71.1,68.0,90,29.96,9.0,West,3.5,-,N/A,,Clear,270,2013-09-09 01:53:00
10:53 PM,71.1,68.0,90,29.97,9.0,Calm,Calm,-,N/A,,Clear,0,2013-09-09 02:53:00
11:53 PM,69.1,66.9,93,29.99,8.0,Calm,Calm,-,N/A,,Partly Cloudy,0,2013-09-09 03:53:00